When you browse on this site, cookies collect data to enhance your experience and personalize the content and advertising you see.
Visit our Privacy Policy to learn more. By continuing to use the site, you agree to this use of cookies and data.
  • In United Kingdom
  • List of Countries
  • For 7 days
  • Water Temperature
  • Satellite Maps
  • Weather Map
  • Weather Widgets
  • user-avatar
    Login

    Hourly Weather Wiktoria

    Today, 20 February, Wednesday

    Time Temperature Precipitation Wind Pressure Humidity
    00:00 +14°C° 0 mm 4 mps 748 mmHg 63%
    01:00 +13°C° 0 mm 4 mps 748 mmHg 66%
    02:00 +13°C° 0 mm 4 mps 748 mmHg 68%
    03:00 +12°C° 0 mm 4 mps 748 mmHg 71%
    04:00 +12°C° 0 mm 4 mps 748 mmHg 73%
    05:00 +12°C° 0 mm 4 mps 748 mmHg 72%
    06:00 +12°C° 0 mm 4 mps 749 mmHg 72%
    07:00 +12°C° 0 mm 4 mps 749 mmHg 71%
    08:00 +15°C° 0 mm 4 mps 749 mmHg 61%
    09:00 +18°C° 0 mm 4 mps 749 mmHg 51%
    10:00 +20°C° 0 mm 4 mps 749 mmHg 40%
    11:00 +22°C° 0 mm 4 mps 749 mmHg 36%
    12:00 +25°C° 0 mm 4 mps 748 mmHg 32%
    13:00 +27°C° 0 mm 4 mps 748 mmHg 28%
    14:00 +27°C° 0 mm 4 mps 747 mmHg 27%
    15:00 +28°C° 0 mm 4 mps 747 mmHg 27%
    16:00 +29°C° 0 mm 4 mps 747 mmHg 26%
    17:00 +27°C° 0 mm 4 mps 747 mmHg 31%
    18:00 +26°C° 0 mm 5 mps 747 mmHg 36%
    19:00 +23°C° 0 mm 5 mps 747 mmHg 41%
    20:00 +22°C° 0 mm 5 mps 748 mmHg 46%
    21:00 +21°C° 0 mm 6 mps 748 mmHg 51%
    22:00 +19°C° 0 mm 6 mps 749 mmHg 56%
    23:00 +17°C° 0 mm 6 mps 749 mmHg 59%

    Tomorrow, 21 February, Thursday

    Time Temperature Precipitation Wind Pressure Humidity
    00:00 +17°C° 0 mm 5 mps 749 mmHg 63%
    01:00 +16°C° 0 mm 5 mps 750 mmHg 66%
    02:00 +15°C° 0 mm 5 mps 750 mmHg 70%
    03:00 +15°C° 0 mm 5 mps 750 mmHg 74%
    04:00 +14°C° 0 mm 5 mps 750 mmHg 79%
    05:00 +14°C° 0 mm 5 mps 750 mmHg 78%
    06:00 +15°C° 0 mm 5 mps 751 mmHg 77%
    07:00 +15°C° 0 mm 5 mps 751 mmHg 76%
    08:00 +17°C° 0 mm 5 mps 752 mmHg 66%
    09:00 +20°C° 0 mm 5 mps 752 mmHg 56%
    10:00 +22°C° 0 mm 5 mps 752 mmHg 46%
    11:00 +25°C° 0 mm 5 mps 752 mmHg 41%
    12:00 +27°C° 0 mm 5 mps 751 mmHg 35%
    13:00 +28°C° 0 mm 5 mps 751 mmHg 30%
    14:00 +28°C° 0 mm 6 mps 750 mmHg 30%
    15:00 +28°C° 0 mm 7 mps 750 mmHg 30%
    16:00 +28°C° 0 mm 7 mps 750 mmHg 30%
    17:00 +27°C° 0 mm 7 mps 750 mmHg 34%
    18:00 +24°C° 0 mm 7 mps 750 mmHg 37%
    19:00 +22°C° 0 mm 7 mps 751 mmHg 41%
    20:00 +21°C° 0 mm 7 mps 752 mmHg 44%
    21:00 +20°C° 0 mm 7 mps 752 mmHg 48%
    22:00 +18°C° 0 mm 7 mps 753 mmHg 51%
    23:00 +17°C° 0 mm 6 mps 753 mmHg 55%

    Day after tomorrow, 22 February, Friday

    Time Temperature Precipitation Wind Pressure Humidity
    00:00 +16°C° 0 mm 5 mps 753 mmHg 59%
    01:00 +15°C° 0 mm 4 mps 753 mmHg 62%
    02:00 +14°C° 0 mm 4 mps 753 mmHg 65%
    03:00 +14°C° 0 mm 4 mps 753 mmHg 68%
    04:00 +13°C° 0 mm 4 mps 753 mmHg 71%
    05:00 +14°C° 0 mm 4 mps 753 mmHg 69%
    06:00 +14°C° 0 mm 4 mps 754 mmHg 67%
    07:00 +14°C° 0 mm 3 mps 754 mmHg 66%
    08:00 +18°C° 0 mm 3 mps 754 mmHg 59%
    09:00 +21°C° 0 mm 2 mps 754 mmHg 52%
    10:00 +25°C° 0 mm 2 mps 755 mmHg 46%
    11:00 +26°C° 0 mm 2 mps 754 mmHg 42%
    12:00 +28°C° 0 mm 3 mps 754 mmHg 37%
    13:00 +29°C° 0 mm 3 mps 753 mmHg 33%
    14:00 +30°C° 0 mm 4 mps 753 mmHg 30%
    15:00 +32°C° 0 mm 5 mps 753 mmHg 27%
    16:00 +32°C° 0 mm 6 mps 752 mmHg 24%
    17:00 +29°C° 0 mm 6 mps 752 mmHg 29%
    18:00 +27°C° 0 mm 7 mps 753 mmHg 34%
    19:00 +26°C° 0 mm 7 mps 753 mmHg 39%
    20:00 +23°C° 0 mm 7 mps 754 mmHg 45%
    21:00 +21°C° 0 mm 7 mps 754 mmHg 51%
    22:00 +20°C° 0 mm 7 mps 755 mmHg 56%
    23:00 +19°C° 0 mm 6 mps 755 mmHg 61%

    23 February, Saturday

    Time Temperature Precipitation Wind Pressure Humidity
    00:00 +17°C° 0 mm 6 mps 755 mmHg 65%
    01:00 +16°C° 0 mm 5 mps 755 mmHg 70%
    02:00 +15°C° 0 mm 5 mps 755 mmHg 72%
    03:00 +15°C° 0 mm 4 mps 755 mmHg 75%
    04:00 +14°C° 0 mm 4 mps 755 mmHg 77%
    05:00 +14°C° 0 mm 4 mps 755 mmHg 75%
    06:00 +14°C° 0 mm 4 mps 755 mmHg 74%
    07:00 +14°C° 0 mm 4 mps 756 mmHg 72%
    08:00 +18°C° 0 mm 3 mps 756 mmHg 62%
    09:00 +21°C° 0 mm 3 mps 756 mmHg 51%
    10:00 +25°C° 0 mm 3 mps 756 mmHg 41%
    11:00 +27°C° 0 mm 3 mps 756 mmHg 34%
    12:00 +29°C° 0 mm 3 mps 755 mmHg 27%
    13:00 +31°C° 0 mm 3 mps 755 mmHg 21%
    14:00 +33°C° 0 mm 3 mps 754 mmHg 20%
    15:00 +34°C° 0 mm 3 mps 754 mmHg 19%
    16:00 +35°C° 0 mm 3 mps 753 mmHg 18%
    17:00 +33°C° 0 mm 4 mps 753 mmHg 22%
    18:00 +30°C° 0 mm 4 mps 754 mmHg 26%
    19:00 +28°C° 0 mm 5 mps 754 mmHg 30%
    20:00 +27°C° 0 mm 5 mps 754 mmHg 35%
    21:00 +25°C° 0 mm 5 mps 755 mmHg 40%
    22:00 +22°C° 0 mm 4 mps 755 mmHg 45%
    23:00 +21°C° 0 mm 4 mps 755 mmHg 51%

    24 February, Sunday

    Time Temperature Precipitation Wind Pressure Humidity
    00:00 +20°C° 0 mm 3 mps 755 mmHg 57%
    01:00 +18°C° 0 mm 2 mps 755 mmHg 63%
    02:00 +18°C° 0 mm 3 mps 755 mmHg 66%
    03:00 +17°C° 0 mm 3 mps 755 mmHg 68%
    04:00 +16°C° 0 mm 3 mps 756 mmHg 70%
    05:00 +16°C° 0 mm 3 mps 756 mmHg 68%
    06:00 +16°C° 0 mm 3 mps 757 mmHg 65%
    07:00 +17°C° 0 mm 3 mps 757 mmHg 62%
    08:00 +19°C° 0 mm 2 mps 757 mmHg 52%
    09:00 +23°C° 0 mm 2 mps 757 mmHg 41%
    10:00 +25°C° 0 mm 2 mps 758 mmHg 31%
    11:00 +27°C° 0 mm 2 mps 757 mmHg 27%
    12:00 +30°C° 0 mm 1 mps 756 mmHg 23%
    13:00 +32°C° 0 mm 1 mps 756 mmHg 19%
    14:00 +32°C° 0 mm 1 mps 755 mmHg 18%
    15:00 +32°C° 0 mm 1 mps 755 mmHg 16%
    16:00 +33°C° 0 mm 1 mps 755 mmHg 15%
    17:00 +31°C° 0 mm 1 mps 755 mmHg 18%
    18:00 +30°C° 0 mm 1 mps 755 mmHg 20%
    19:00 +28°C° 0 mm 1 mps 755 mmHg 22%
    20:00 +27°C° 0 mm 1 mps 755 mmHg 24%
    21:00 +26°C° 0 mm 1 mps 756 mmHg 25%
    22:00 +25°C° 0 mm 1 mps 756 mmHg 27%
    23:00 +24°C° 0 mm 2 mps 756 mmHg 31%

    25 February, Monday

    Time Temperature Precipitation Wind Pressure Humidity
    00:00 +22°C° 0 mm 3 mps 756 mmHg 35%
    01:00 +21°C° 0 mm 3 mps 756 mmHg 39%
    02:00 +20°C° 0 mm 3 mps 756 mmHg 42%
    03:00 +19°C° 0 mm 3 mps 756 mmHg 46%
    04:00 +19°C° 0 mm 3 mps 756 mmHg 49%
    05:00 +19°C° 0 mm 3 mps 757 mmHg 52%
    06:00 +18°C° 0 mm 3 mps 757 mmHg 54%
    07:00 +18°C° 0 mm 3 mps 757 mmHg 57%
    08:00 +20°C° 0 mm 3 mps 757 mmHg 51%
    09:00 +22°C° 0 mm 4 mps 757 mmHg 45%
    10:00 +25°C° 0 mm 4 mps 757 mmHg 39%
    11:00 +27°C° 0 mm 3 mps 757 mmHg 35%
    12:00 +28°C° 0 mm 3 mps 756 mmHg 31%
    13:00 +30°C° 0 mm 2 mps 755 mmHg 26%
    14:00 +31°C° 0 mm 2 mps 755 mmHg 25%
    15:00 +32°C° 0 mm 1 mps 754 mmHg 24%
    16:00 +33°C° 0 mm 1 mps 754 mmHg 22%
    17:00 +31°C° 0 mm 1 mps 754 mmHg 24%
    18:00 +29°C° 0 mm 1 mps 754 mmHg 27%
    19:00 +26°C° 0 mm 0 mps 754 mmHg 29%
    20:00 +25°C° 0 mm 0 mps 754 mmHg 30%
    21:00 +24°C° 0 mm 0 mps 754 mmHg 31%
    22:00 +23°C° 0 mm 0 mps 754 mmHg 32%
    23:00 +25°C° 0 mm 1 mps 754 mmHg 33%
    Show more